Time,TemperatureF,DewpointF,PressureIn,WindDirection,WindDirectionDegrees,WindSpeedMPH,WindSpeedGustMPH,Humidity,HourlyPrecipIn,Conditions,Clouds,dailyrainin,SoftwareType,DateUTC
2013-10-30 00:02:00,46.5,45.7,30.02,NE,47,6.0,7.0,97,0.00,,,0.00,Wunderground v.1.15,2013-10-30 05:02:00,
2013-10-30 00:07:00,46.5,45.7,30.02,NE,47,4.0,7.0,97,0.00,,,0.00,Wunderground v.1.15,2013-10-30 05:07:00,
2013-10-30 00:12:00,46.5,45.7,30.02,NNE,24,4.0,5.0,97,0.00,,,0.00,Wunderground v.1.15,2013-10-30 05:12:00,
2013-10-30 00:18:00,46.5,45.7,30.02,NE,34,4.0,5.0,97,0.00,,,0.00,Wunderground v.1.15,2013-10-30 05:18:00,
2013-10-30 00:23:00,46.5,45.7,30.02,NE,38,6.0,6.0,97,0.00,,,0.00,Wunderground v.1.15,2013-10-30 05:23:00,
2013-10-30 00:29:00,46.5,45.7,30.02,NE,51,5.0,6.0,97,0.00,,,0.00,Wunderground v.1.15,2013-10-30 05:29:00,
2013-10-30 00:35:00,46.6,45.8,30.02,NE,42,7.0,7.0,97,0.00,,,0.00,Wunderground v.1.15,2013-10-30 05:35:00,
2013-10-30 00:41:00,46.6,45.8,30.02,NE,36,6.0,6.0,97,0.00,,,0.00,Wunderground v.1.15,2013-10-30 05:41:00,
2013-10-30 00:46:00,46.6,45.8,30.02,NE,34,5.0,8.0,97,0.00,,,0.00,Wunderground v.1.15,2013-10-30 05:46:00,
2013-10-30 00:52:00,46.6,45.8,30.02,NE,34,5.0,5.0,97,0.00,,,0.00,Wunderground v.1.15,2013-10-30 05:52:00,
2013-10-30 00:58:00,46.5,45.7,30.02,NE,38,4.0,5.0,97,0.00,,,0.00,Wunderground v.1.15,2013-10-30 05:58:00,
2013-10-30 01:04:00,46.6,45.8,30.02,ENE,61,6.0,7.0,97,0.00,,,0.00,Wunderground v.1.15,2013-10-30 06:04:00,
2013-10-30 01:09:00,46.7,45.9,30.02,NE,55,5.0,6.0,97,0.00,,,0.00,Wunderground v.1.15,2013-10-30 06:09:00,
2013-10-30 01:14:00,46.6,45.8,30.01,NE,46,6.0,6.0,97,0.00,,,0.00,Wunderground v.1.15,2013-10-30 06:14:00,
2013-10-30 01:20:00,46.6,45.8,30.01,ENE,61,4.0,7.0,97,0.00,,,0.00,Wunderground v.1.15,2013-10-30 06:20:00,
2013-10-30 01:26:00,46.6,45.8,30.01,ENE,59,6.0,7.0,97,0.00,,,0.00,Wunderground v.1.15,2013-10-30 06:26:00,
2013-10-30 01:32:00,46.6,45.8,30.01,ENE,64,8.0,8.0,97,0.00,,,0.00,Wunderground v.1.15,2013-10-30 06:32:00,
2013-10-30 01:38:00,46.6,45.8,30.01,ENE,67,8.0,8.0,97,0.00,,,0.00,Wunderground v.1.15,2013-10-30 06:38:00,
2013-10-30 01:43:00,46.6,45.8,30.01,ENE,65,5.0,8.0,97,0.00,,,0.00,Wunderground v.1.15,2013-10-30 06:43:00,
2013-10-30 01:49:00,46.6,45.8,30.00,NE,55,6.0,7.0,97,0.00,,,0.00,Wunderground v.1.15,2013-10-30 06:49:00,
2013-10-30 01:55:00,46.5,45.7,30.00,NE,56,6.0,8.0,97,0.00,,,0.00,Wunderground v.1.15,2013-10-30 06:55:00,
2013-10-30 02:00:00,46.4,45.6,30.00,NE,51,9.0,9.0,97,0.00,,,0.00,Wunderground v.1.15,2013-10-30 07:00:00,
2013-10-30 02:06:00,46.4,45.6,30.00,ENE,61,5.0,10.0,97,0.00,,,0.00,Wunderground v.1.15,2013-10-30 07:06:00,
2013-10-30 02:11:00,46.4,45.6,30.00,ENE,58,7.0,10.0,97,0.00,,,0.00,Wunderground v.1.15,2013-10-30 07:11:00,
2013-10-30 02:16:00,46.4,45.6,29.99,ENE,76,5.0,10.0,97,0.00,,,0.00,Wunderground v.1.15,2013-10-30 07:16:00,
2013-10-30 02:21:00,46.4,45.6,29.99,NE,53,5.0,9.0,97,0.00,,,0.00,Wunderground v.1.15,2013-10-30 07:21:00,
2013-10-30 02:26:00,46.4,45.6,29.99,ENE,66,4.0,9.0,97,0.00,,,0.00,Wunderground v.1.15,2013-10-30 07:26:00,
2013-10-30 02:31:00,46.4,45.6,29.99,ENE,73,5.0,6.0,97,0.00,,,0.00,Wunderground v.1.15,2013-10-30 07:31:00,
2013-10-30 02:36:00,46.3,45.5,29.99,NE,53,4.0,7.0,97,0.00,,,0.01,Wunderground v.1.15,2013-10-30 07:36:00,
2013-10-30 02:41:00,46.2,45.4,29.99,ENE,74,7.0,8.0,97,0.00,,,0.01,Wunderground v.1.15,2013-10-30 07:41:00,
2013-10-30 02:46:00,46.1,45.3,29.99,ENE,67,4.0,8.0,97,0.00,,,0.01,Wunderground v.1.15,2013-10-30 07:46:00,
2013-10-30 02:51:00,46.0,45.2,29.99,NE,53,4.0,5.0,97,0.00,,,0.01,Wunderground v.1.15,2013-10-30 07:51:00,
2013-10-30 02:56:00,46.0,45.2,29.99,NE,40,5.0,5.0,97,0.00,,,0.01,Wunderground v.1.15,2013-10-30 07:56:00,
2013-10-30 03:01:00,45.9,45.1,29.99,NNE,30,4.0,5.0,97,0.00,,,0.01,Wunderground v.1.15,2013-10-30 08:01:00,
2013-10-30 03:06:00,45.8,45.0,29.99,NE,46,4.0,6.0,97,0.00,,,0.01,Wunderground v.1.15,2013-10-30 08:06:00,
2013-10-30 03:11:00,45.8,45.0,29.99,ENE,61,4.0,6.0,97,0.00,,,0.01,Wunderground v.1.15,2013-10-30 08:11:00,
2013-10-30 03:16:00,45.7,44.9,29.98,NE,51,5.0,6.0,97,0.00,,,0.01,Wunderground v.1.15,2013-10-30 08:16:00,
2013-10-30 03:21:00,45.7,44.9,29.98,NE,53,5.0,6.0,97,0.00,,,0.01,Wunderground v.1.15,2013-10-30 08:21:00,
2013-10-30 03:26:00,45.7,44.9,29.98,ENE,71,3.0,6.0,97,0.00,,,0.01,Wunderground v.1.15,2013-10-30 08:26:00,
2013-10-30 03:31:00,45.8,45.0,29.98,NE,53,4.0,5.0,97,0.00,,,0.01,Wunderground v.1.15,2013-10-30 08:31:00,
2013-10-30 03:36:00,45.8,45.0,29.98,NE,51,3.0,5.0,97,0.00,,,0.01,Wunderground v.1.15,2013-10-30 08:36:00,
2013-10-30 03:41:00,45.8,45.0,29.98,ENE,59,4.0,6.0,97,0.00,,,0.01,Wunderground v.1.15,2013-10-30 08:41:00,
2013-10-30 03:46:00,45.7,44.9,29.98,NE,44,5.0,6.0,97,0.00,,,0.01,Wunderground v.1.15,2013-10-30 08:46:00,
2013-10-30 03:51:00,45.7,44.9,29.97,NE,51,4.0,6.0,97,0.00,,,0.01,Wunderground v.1.15,2013-10-30 08:51:00,
2013-10-30 03:56:00,45.7,44.9,29.97,NE,53,5.0,7.0,97,0.00,,,0.01,Wunderground v.1.15,2013-10-30 08:56:00,
2013-10-30 04:01:00,45.7,44.9,29.97,NE,50,5.0,6.0,97,0.00,,,0.01,Wunderground v.1.15,2013-10-30 09:01:00,
2013-10-30 04:06:00,45.6,44.8,29.97,ENE,63,4.0,8.0,97,0.00,,,0.01,Wunderground v.1.15,2013-10-30 09:06:00,
2013-10-30 04:11:00,45.6,44.8,29.97,ENE,71,4.0,6.0,97,0.00,,,0.01,Wunderground v.1.15,2013-10-30 09:11:00,
2013-10-30 04:16:00,45.6,44.8,29.97,ENE,64,4.0,6.0,97,0.00,,,0.01,Wunderground v.1.15,2013-10-30 09:16:00,
2013-10-30 04:21:00,45.6,44.8,29.97,ENE,65,3.0,4.0,97,0.00,,,0.01,Wunderground v.1.15,2013-10-30 09:21:00,
2013-10-30 04:26:00,45.6,44.8,29.96,ENE,59,3.0,5.0,97,0.00,,,0.01,Wunderground v.1.15,2013-10-30 09:26:00,
2013-10-30 04:31:00,45.7,44.9,29.96,ENE,65,4.0,5.0,97,0.00,,,0.01,Wunderground v.1.15,2013-10-30 09:31:00,
2013-10-30 04:36:00,45.7,44.9,29.96,East,88,4.0,5.0,97,0.00,,,0.01,Wunderground v.1.15,2013-10-30 09:36:00,
2013-10-30 04:41:00,45.7,44.9,29.96,ENE,61,4.0,6.0,97,0.00,,,0.01,Wunderground v.1.15,2013-10-30 09:41:00,
2013-10-30 04:46:00,45.8,45.0,29.95,ENE,62,2.0,7.0,97,0.00,,,0.01,Wunderground v.1.15,2013-10-30 09:46:00,
2013-10-30 04:51:00,45.8,45.0,29.95,ENE,63,4.0,5.0,97,0.00,,,0.01,Wunderground v.1.15,2013-10-30 09:51:00,
2013-10-30 04:56:00,45.8,45.0,29.95,ENE,57,2.0,5.0,97,0.00,,,0.01,Wunderground v.1.15,2013-10-30 09:56:00,
2013-10-30 05:01:00,45.9,45.1,29.95,ENE,63,1.0,4.0,97,0.00,,,0.01,Wunderground v.1.15,2013-10-30 10:01:00,
2013-10-30 05:06:00,45.9,45.1,29.95,ENE,61,2.0,4.0,97,0.00,,,0.01,Wunderground v.1.15,2013-10-30 10:06:00,
2013-10-30 05:11:00,46.0,45.2,29.94,ENE,59,2.0,5.0,97,0.00,,,0.01,Wunderground v.1.15,2013-10-30 10:11:00,
2013-10-30 05:16:00,46.1,45.3,29.95,NE,40,0.0,5.0,97,0.00,,,0.01,Wunderground v.1.15,2013-10-30 10:16:00,
2013-10-30 05:21:00,46.1,45.3,29.94,East,90,1.0,3.0,97,0.00,,,0.01,Wunderground v.1.15,2013-10-30 10:21:00,
2013-10-30 05:26:00,46.2,45.4,29.94,East,88,0.0,3.0,97,0.00,,,0.01,Wunderground v.1.15,2013-10-30 10:26:00,
2013-10-30 05:31:00,46.3,45.5,29.94,ENE,74,0.0,3.0,97,0.00,,,0.01,Wunderground v.1.15,2013-10-30 10:31:00,
2013-10-30 05:36:00,46.4,45.6,29.93,East,93,2.0,4.0,97,0.00,,,0.01,Wunderground v.1.15,2013-10-30 10:36:00,
2013-10-30 05:41:00,46.4,45.6,29.93,East,87,1.0,3.0,97,0.00,,,0.01,Wunderground v.1.15,2013-10-30 10:41:00,
2013-10-30 05:46:00,46.5,45.7,29.93,ESE,118,3.0,4.0,97,0.00,,,0.01,Wunderground v.1.15,2013-10-30 10:46:00,
2013-10-30 05:51:00,46.6,45.8,29.93,ENE,61,2.0,3.0,97,0.00,,,0.01,Wunderground v.1.15,2013-10-30 10:51:00,
2013-10-30 05:56:00,46.7,45.9,29.93,East,82,2.0,3.0,97,0.00,,,0.01,Wunderground v.1.15,2013-10-30 10:56:00,
2013-10-30 06:01:00,46.8,46.0,29.93,SE,140,2.0,4.0,97,0.00,,,0.01,Wunderground v.1.15,2013-10-30 11:01:00,
2013-10-30 06:06:00,46.8,46.0,29.94,ESE,103,1.0,4.0,97,0.00,,,0.01,Wunderground v.1.15,2013-10-30 11:06:00,
2013-10-30 06:11:00,46.9,46.1,29.93,ENE,63,2.0,3.0,97,0.00,,,0.01,Wunderground v.1.15,2013-10-30 11:11:00,
2013-10-30 06:16:00,46.9,46.1,29.93,SE,137,1.0,3.0,97,0.00,,,0.01,Wunderground v.1.15,2013-10-30 11:16:00,
2013-10-30 06:21:00,47.0,46.2,29.93,ENE,59,2.0,3.0,97,0.00,,,0.01,Wunderground v.1.15,2013-10-30 11:21:00,
2013-10-30 06:26:00,47.0,46.2,29.93,East,79,2.0,3.0,97,0.00,,,0.01,Wunderground v.1.15,2013-10-30 11:26:00,
2013-10-30 06:31:00,47.0,46.2,29.93,ENE,69,0.0,2.0,97,0.00,,,0.01,Wunderground v.1.15,2013-10-30 11:31:00,
2013-10-30 06:36:00,47.1,46.3,29.93,ENE,69,1.0,2.0,97,0.00,,,0.01,Wunderground v.1.15,2013-10-30 11:36:00,
2013-10-30 06:41:00,47.1,46.3,29.92,ENE,69,2.0,2.0,97,0.00,,,0.01,Wunderground v.1.15,2013-10-30 11:41:00,
2013-10-30 06:46:00,47.2,46.4,29.92,ENE,75,5.0,5.0,97,0.00,,,0.01,Wunderground v.1.15,2013-10-30 11:46:00,
2013-10-30 06:51:00,47.2,46.4,29.91,ENE,57,2.0,4.0,97,0.00,,,0.01,Wunderground v.1.15,2013-10-30 11:51:00,
2013-10-30 06:56:00,47.3,46.8,29.91,ENE,60,1.0,4.0,98,0.00,,,0.01,Wunderground v.1.15,2013-10-30 11:56:00,
2013-10-30 07:01:00,47.3,46.5,29.91,ENE,57,1.0,3.0,97,0.00,,,0.01,Wunderground v.1.15,2013-10-30 12:01:00,
2013-10-30 07:06:00,47.4,46.9,29.92,East,79,0.0,3.0,98,0.00,,,0.01,Wunderground v.1.15,2013-10-30 12:06:00,
2013-10-30 07:11:00,47.4,46.9,29.91,ENE,66,3.0,4.0,98,0.00,,,0.01,Wunderground v.1.15,2013-10-30 12:11:00,
2013-10-30 07:16:00,47.4,46.9,29.92,ENE,66,2.0,5.0,98,0.00,,,0.01,Wunderground v.1.15,2013-10-30 12:16:00,
2013-10-30 07:21:00,47.4,46.9,29.92,ENE,67,1.0,4.0,98,0.00,,,0.01,Wunderground v.1.15,2013-10-30 12:21:00,
2013-10-30 07:26:00,47.4,46.9,29.91,ENE,62,4.0,4.0,98,0.00,,,0.01,Wunderground v.1.15,2013-10-30 12:26:00,
2013-10-30 07:31:00,47.3,46.8,29.92,ENE,62,3.0,4.0,98,0.00,,,0.01,Wunderground v.1.15,2013-10-30 12:31:00,
2013-10-30 07:36:00,47.3,46.8,29.92,NE,55,3.0,4.0,98,0.00,,,0.01,Wunderground v.1.15,2013-10-30 12:36:00,
2013-10-30 07:41:00,47.3,46.5,29.92,ENE,57,3.0,4.0,97,0.00,,,0.01,Wunderground v.1.15,2013-10-30 12:41:00,
2013-10-30 07:46:00,47.3,46.8,29.92,ENE,65,2.0,4.0,98,0.00,,,0.01,Wunderground v.1.15,2013-10-30 12:46:00,
2013-10-30 07:51:00,47.3,46.8,29.92,ENE,63,2.0,4.0,98,0.00,,,0.01,Wunderground v.1.15,2013-10-30 12:51:00,
2013-10-30 07:56:00,47.3,46.5,29.93,ENE,65,0.0,4.0,97,0.00,,,0.01,Wunderground v.1.15,2013-10-30 12:56:00,
2013-10-30 08:01:00,47.3,46.5,29.93,ENE,60,3.0,4.0,97,0.00,,,0.01,Wunderground v.1.15,2013-10-30 13:01:00,
2013-10-30 08:06:00,47.3,46.5,29.93,ENE,60,0.0,4.0,97,0.00,,,0.01,Wunderground v.1.15,2013-10-30 13:06:00,
2013-10-30 08:12:00,47.3,46.8,29.94,ENE,60,0.0,2.0,98,0.00,,,0.01,Wunderground v.1.15,2013-10-30 13:12:00,
2013-10-30 08:16:00,47.3,46.8,29.95,ESE,113,3.0,3.0,98,0.00,,,0.01,Wunderground v.1.15,2013-10-30 13:16:00,
2013-10-30 08:21:00,47.4,46.9,29.96,SE,137,2.0,2.0,98,0.00,,,0.01,Wunderground v.1.15,2013-10-30 13:21:00,
2013-10-30 08:26:00,47.4,46.9,29.97,SE,137,1.0,2.0,98,0.00,,,0.01,Wunderground v.1.15,2013-10-30 13:26:00,
2013-10-30 08:31:00,47.4,46.9,29.97,SE,137,0.0,1.0,98,0.00,,,0.01,Wunderground v.1.15,2013-10-30 13:31:00,
2013-10-30 08:36:00,47.5,47.0,29.97,SE,137,0.0,1.0,98,0.00,,,0.01,Wunderground v.1.15,2013-10-30 13:36:00,
2013-10-30 08:41:00,47.6,47.1,29.96,SE,137,1.0,1.0,98,0.00,,,0.01,Wunderground v.1.15,2013-10-30 13:41:00,
2013-10-30 08:46:00,47.7,47.2,29.97,ENE,63,1.0,2.0,98,0.00,,,0.01,Wunderground v.1.15,2013-10-30 13:46:00,
2013-10-30 08:51:00,47.7,47.2,29.96,NE,34,2.0,3.0,98,0.00,,,0.01,Wunderground v.1.15,2013-10-30 13:51:00,
2013-10-30 08:56:00,47.6,47.1,29.97,NE,34,0.0,3.0,98,0.00,,,0.01,Wunderground v.1.15,2013-10-30 13:56:00,
2013-10-30 09:01:00,47.6,47.1,29.97,NE,34,0.0,2.0,98,0.00,,,0.01,Wunderground v.1.15,2013-10-30 14:01:00,
2013-10-30 09:06:00,47.6,47.1,29.97,NE,34,0.0,2.0,98,0.00,,,0.01,Wunderground v.1.15,2013-10-30 14:06:00,
2013-10-30 09:11:00,47.5,47.0,29.97,NE,34,1.0,2.0,98,0.00,,,0.01,Wunderground v.1.15,2013-10-30 14:11:00,
2013-10-30 09:16:00,47.6,47.1,29.97,NE,34,1.0,2.0,98,0.00,,,0.01,Wunderground v.1.15,2013-10-30 14:16:00,
2013-10-30 09:21:00,47.6,47.1,29.96,NE,34,2.0,2.0,98,0.00,,,0.01,Wunderground v.1.15,2013-10-30 14:21:00,
2013-10-30 09:26:00,47.6,47.1,29.95,NE,34,2.0,3.0,98,0.00,,,0.02,Wunderground v.1.15,2013-10-30 14:26:00,
2013-10-30 09:31:00,47.7,47.2,29.94,NE,34,2.0,3.0,98,0.00,,,0.02,Wunderground v.1.15,2013-10-30 14:31:00,
2013-10-30 09:36:00,47.6,47.1,29.91,ENE,57,6.0,8.0,98,0.00,,,0.02,Wunderground v.1.15,2013-10-30 14:36:00,
2013-10-30 09:41:00,47.6,47.1,29.88,NE,39,7.0,12.0,98,0.00,,,0.02,Wunderground v.1.15,2013-10-30 14:41:00,
2013-10-30 09:46:00,47.7,47.2,29.87,NE,55,7.0,12.0,98,0.00,,,0.02,Wunderground v.1.15,2013-10-30 14:46:00,
2013-10-30 09:51:00,47.8,47.3,29.85,ENE,69,11.0,12.0,98,0.00,,,0.02,Wunderground v.1.15,2013-10-30 14:51:00,
2013-10-30 09:56:00,47.9,47.4,29.83,ENE,68,9.0,13.0,98,0.00,,,0.02,Wunderground v.1.15,2013-10-30 14:56:00,
2013-10-30 10:01:00,48.1,47.6,29.81,ENE,74,11.0,14.0,98,0.00,,,0.02,Wunderground v.1.15,2013-10-30 15:01:00,
2013-10-30 10:06:00,48.3,47.8,29.81,NE,41,9.0,14.0,98,0.00,,,0.02,Wunderground v.1.15,2013-10-30 15:06:00,
2013-10-30 10:11:00,48.5,48.0,29.79,East,82,7.0,14.0,98,0.00,,,0.02,Wunderground v.1.15,2013-10-30 15:11:00,
2013-10-30 10:16:00,48.6,48.1,29.79,ENE,73,4.0,16.0,98,0.00,,,0.02,Wunderground v.1.15,2013-10-30 15:16:00,
2013-10-30 10:21:00,48.8,48.3,29.79,East,86,2.0,10.0,98,0.00,,,0.02,Wunderground v.1.15,2013-10-30 15:21:00,
2013-10-30 10:26:00,49.1,48.6,29.79,SE,129,4.0,10.0,98,0.00,,,0.02,Wunderground v.1.15,2013-10-30 15:26:00,
2013-10-30 10:32:00,49.4,48.9,29.79,ESE,119,3.0,11.0,98,0.00,,,0.02,Wunderground v.1.15,2013-10-30 15:32:00,
2013-10-30 10:37:00,49.7,49.2,29.80,SE,138,4.0,11.0,98,0.00,,,0.02,Wunderground v.1.15,2013-10-30 15:37:00,
2013-10-30 10:42:00,49.9,49.4,29.81,SSE,152,8.0,13.0,98,0.00,,,0.02,Wunderground v.1.15,2013-10-30 15:42:00,
2013-10-30 10:47:00,50.0,49.5,29.82,SE,131,14.0,14.0,98,0.00,,,0.02,Wunderground v.1.15,2013-10-30 15:47:00,
2013-10-30 10:52:00,50.1,49.6,29.81,ENE,75,7.0,16.0,98,0.00,,,0.02,Wunderground v.1.15,2013-10-30 15:52:00,
2013-10-30 10:57:00,50.3,49.8,29.81,ESE,113,7.0,16.0,98,0.00,,,0.02,Wunderground v.1.15,2013-10-30 15:57:00,
2013-10-30 11:02:00,50.4,49.9,29.81,ESE,122,13.0,17.0,98,0.00,,,0.02,Wunderground v.1.15,2013-10-30 16:02:00,
2013-10-30 11:07:00,50.5,50.0,29.81,SE,138,5.0,17.0,98,0.00,,,0.02,Wunderground v.1.15,2013-10-30 16:07:00,
2013-10-30 11:12:00,50.7,50.2,29.82,SE,144,8.0,13.0,98,0.00,,,0.02,Wunderground v.1.15,2013-10-30 16:12:00,
2013-10-30 11:17:00,50.8,50.3,29.83,South,173,8.0,13.0,98,0.00,,,0.02,Wunderground v.1.15,2013-10-30 16:17:00,
2013-10-30 11:22:00,50.9,50.4,29.83,SE,132,8.0,10.0,98,0.00,,,0.02,Wunderground v.1.15,2013-10-30 16:22:00,
2013-10-30 11:27:00,51.1,50.6,29.84,SSE,147,4.0,10.0,98,0.00,,,0.02,Wunderground v.1.15,2013-10-30 16:27:00,
2013-10-30 11:32:00,51.3,50.8,29.84,South,170,1.0,7.0,98,0.00,,,0.02,Wunderground v.1.15,2013-10-30 16:32:00,
2013-10-30 11:37:00,51.4,50.9,29.85,WSW,254,3.0,7.0,98,0.00,,,0.02,Wunderground v.1.15,2013-10-30 16:37:00,
2013-10-30 11:42:00,51.4,50.9,29.86,WSW,246,5.0,7.0,98,0.00,,,0.02,Wunderground v.1.15,2013-10-30 16:42:00,
2013-10-30 11:47:00,51.4,50.9,29.87,WSW,241,6.0,7.0,98,0.00,,,0.02,Wunderground v.1.15,2013-10-30 16:47:00,
2013-10-30 11:52:00,51.5,51.0,29.87,WSW,238,5.0,7.0,98,0.00,,,0.02,Wunderground v.1.15,2013-10-30 16:52:00,
2013-10-30 11:57:00,51.6,51.1,29.87,SW,221,5.0,7.0,98,0.00,,,0.02,Wunderground v.1.15,2013-10-30 16:57:00,
2013-10-30 12:02:00,51.7,51.2,29.87,WSW,242,4.0,6.0,98,0.00,,,0.02,Wunderground v.1.15,2013-10-30 17:02:00,
2013-10-30 12:07:00,51.8,51.3,29.87,WSW,241,4.0,6.0,98,0.00,,,0.02,Wunderground v.1.15,2013-10-30 17:07:00,
2013-10-30 12:12:00,51.8,51.3,29.87,WSW,244,5.0,7.0,98,0.00,,,0.02,Wunderground v.1.15,2013-10-30 17:12:00,
2013-10-30 12:17:00,51.9,51.4,29.87,SW,227,4.0,7.0,98,0.00,,,0.02,Wunderground v.1.15,2013-10-30 17:17:00,
2013-10-30 12:22:00,52.1,51.6,29.86,SSW,196,3.0,5.0,98,0.00,,,0.02,Wunderground v.1.15,2013-10-30 17:22:00,
2013-10-30 12:27:00,52.2,51.7,29.87,SSW,206,4.0,7.0,98,0.00,,,0.02,Wunderground v.1.15,2013-10-30 17:27:00,
2013-10-30 12:32:00,52.2,51.7,29.87,SSW,200,5.0,6.0,98,0.00,,,0.02,Wunderground v.1.15,2013-10-30 17:32:00,
2013-10-30 12:37:00,52.3,51.8,29.86,South,185,3.0,6.0,98,0.00,,,0.02,Wunderground v.1.15,2013-10-30 17:37:00,
2013-10-30 12:42:00,52.3,51.8,29.86,SW,217,3.0,5.0,98,0.00,,,0.02,Wunderground v.1.15,2013-10-30 17:42:00,
2013-10-30 12:47:00,52.4,51.9,29.86,SW,222,3.0,5.0,98,0.00,,,0.02,Wunderground v.1.15,2013-10-30 17:47:00,
2013-10-30 12:52:00,52.4,51.9,29.84,SW,225,0.0,3.0,98,0.00,,,0.02,Wunderground v.1.15,2013-10-30 17:52:00,
2013-10-30 12:57:00,52.5,52.0,29.83,SSW,205,0.0,3.0,98,0.00,,,0.02,Wunderground v.1.15,2013-10-30 17:57:00,
2013-10-30 13:02:00,52.5,52.0,29.84,SSW,205,2.0,3.0,98,0.00,,,0.02,Wunderground v.1.15,2013-10-30 18:02:00,
2013-10-30 13:07:00,52.5,52.0,29.84,SSW,213,0.0,3.0,98,0.00,,,0.02,Wunderground v.1.15,2013-10-30 18:07:00,
2013-10-30 13:12:00,52.3,51.8,29.83,SSW,213,2.0,2.0,98,0.00,,,0.02,Wunderground v.1.15,2013-10-30 18:12:00,
2013-10-30 13:17:00,52.2,51.7,29.82,NW,313,2.0,3.0,98,0.00,,,0.02,Wunderground v.1.15,2013-10-30 18:17:00,
2013-10-30 13:22:00,52.0,51.5,29.82,NNW,329,3.0,4.0,98,0.00,,,0.02,Wunderground v.1.15,2013-10-30 18:22:00,
2013-10-30 13:27:00,51.9,51.4,29.81,NNW,342,3.0,4.0,98,0.00,,,0.02,Wunderground v.1.15,2013-10-30 18:27:00,
2013-10-30 13:32:00,51.9,51.4,29.80,NNE,23,3.0,4.0,98,0.00,,,0.02,Wunderground v.1.15,2013-10-30 18:32:00,
2013-10-30 13:37:00,52.0,51.5,29.80,NW,321,3.0,4.0,98,0.00,,,0.02,Wunderground v.1.15,2013-10-30 18:37:00,
2013-10-30 13:42:00,52.0,51.5,29.80,North,355,3.0,5.0,98,0.00,,,0.02,Wunderground v.1.15,2013-10-30 18:42:00,
2013-10-30 13:47:00,52.0,51.5,29.79,NNW,329,2.0,5.0,98,0.00,,,0.02,Wunderground v.1.15,2013-10-30 18:47:00,
2013-10-30 13:52:00,51.9,51.4,29.79,NW,321,6.0,8.0,98,0.00,,,0.02,Wunderground v.1.15,2013-10-30 18:52:00,
2013-10-30 13:57:00,51.7,51.2,29.78,NNW,336,5.0,8.0,98,0.00,,,0.02,Wunderground v.1.15,2013-10-30 18:57:00,
2013-10-30 14:02:00,51.5,51.0,29.76,NNW,346,6.0,9.0,98,0.00,,,0.02,Wunderground v.1.15,2013-10-30 19:02:00,
2013-10-30 14:07:00,51.6,51.1,29.76,NW,321,5.0,9.0,98,0.00,,,0.02,Wunderground v.1.15,2013-10-30 19:07:00,
2013-10-30 14:12:00,51.6,51.1,29.77,NW,321,8.0,9.0,98,0.00,,,0.02,Wunderground v.1.15,2013-10-30 19:12:00,
2013-10-30 14:17:00,51.6,51.1,29.77,NNW,329,9.0,9.0,98,0.00,,,0.02,Wunderground v.1.15,2013-10-30 19:17:00,
2013-10-30 14:22:00,51.3,50.8,29.78,WNW,300,7.0,10.0,98,0.00,,,0.02,Wunderground v.1.15,2013-10-30 19:22:00,
2013-10-30 14:27:00,51.0,50.5,29.78,NW,309,8.0,10.0,98,0.00,,,0.02,Wunderground v.1.15,2013-10-30 19:27:00,
2013-10-30 14:32:00,50.9,50.4,29.79,NW,306,7.0,9.0,98,0.00,,,0.02,Wunderground v.1.15,2013-10-30 19:32:00,
2013-10-30 14:37:00,50.8,50.3,29.79,NW,309,4.0,9.0,98,0.00,,,0.02,Wunderground v.1.15,2013-10-30 19:37:00,
2013-10-30 14:42:00,50.8,50.3,29.76,North,5,4.0,6.0,98,0.00,,,0.02,Wunderground v.1.15,2013-10-30 19:42:00,
2013-10-30 14:47:00,50.7,50.2,29.76,NNW,347,5.0,7.0,98,0.00,,,0.02,Wunderground v.1.15,2013-10-30 19:47:00,
2013-10-30 14:52:00,50.6,50.1,29.77,NW,321,5.0,8.0,98,0.00,,,0.02,Wunderground v.1.15,2013-10-30 19:52:00,
2013-10-30 14:57:00,50.6,50.1,29.78,NW,309,9.0,9.0,98,0.00,,,0.02,Wunderground v.1.15,2013-10-30 19:57:00,
2013-10-30 15:02:00,50.5,50.0,29.76,NNW,327,6.0,9.0,98,0.00,,,0.02,Wunderground v.1.15,2013-10-30 20:02:00,
2013-10-30 15:07:00,50.5,50.0,29.77,NW,306,4.0,9.0,98,0.00,,,0.02,Wunderground v.1.15,2013-10-30 20:07:00,
2013-10-30 15:12:00,50.3,49.8,29.75,NNW,336,6.0,10.0,98,0.00,,,0.02,Wunderground v.1.15,2013-10-30 20:12:00,
2013-10-30 15:17:00,50.2,49.7,29.76,NW,316,8.0,11.0,98,0.00,,,0.02,Wunderground v.1.15,2013-10-30 20:17:00,
2013-10-30 15:22:00,50.1,49.6,29.76,NNW,330,5.0,10.0,98,0.00,,,0.02,Wunderground v.1.15,2013-10-30 20:22:00,
2013-10-30 15:27:00,50.0,49.5,29.76,NW,322,8.0,10.0,98,0.00,,,0.02,Wunderground v.1.15,2013-10-30 20:27:00,
2013-10-30 15:32:00,50.0,49.5,29.76,NW,326,5.0,10.0,98,0.00,,,0.02,Wunderground v.1.15,2013-10-30 20:32:00,
2013-10-30 15:37:00,49.9,49.4,29.75,NNW,336,5.0,10.0,98,0.00,,,0.02,Wunderground v.1.15,2013-10-30 20:37:00,
2013-10-30 15:42:00,49.8,49.3,29.75,NNW,327,9.0,10.0,98,0.00,,,0.02,Wunderground v.1.15,2013-10-30 20:42:00,
2013-10-30 15:47:00,49.8,49.3,29.75,NNW,342,6.0,11.0,98,0.00,,,0.02,Wunderground v.1.15,2013-10-30 20:47:00,
2013-10-30 15:52:00,49.8,49.3,29.74,North,355,4.0,8.0,98,0.00,,,0.02,Wunderground v.1.15,2013-10-30 20:52:00,
2013-10-30 15:57:00,49.7,49.2,29.75,NNW,327,9.0,9.0,98,0.00,,,0.02,Wunderground v.1.15,2013-10-30 20:57:00,
2013-10-30 16:02:00,49.7,49.2,29.76,NW,308,9.0,10.0,98,0.00,,,0.02,Wunderground v.1.15,2013-10-30 21:02:00,
2013-10-30 16:07:00,49.7,49.2,29.75,NNW,327,6.0,11.0,98,0.00,,,0.02,Wunderground v.1.15,2013-10-30 21:07:00,
2013-10-30 16:12:00,49.6,49.1,29.76,NNW,335,6.0,9.0,98,0.00,,,0.02,Wunderground v.1.15,2013-10-30 21:12:00,
2013-10-30 16:17:00,49.6,49.1,29.75,North,360,4.0,9.0,98,0.00,,,0.02,Wunderground v.1.15,2013-10-30 21:17:00,
2013-10-30 16:22:00,49.6,49.1,29.76,NNW,330,5.0,6.0,98,0.00,,,0.02,Wunderground v.1.15,2013-10-30 21:22:00,
2013-10-30 16:27:00,49.6,49.1,29.77,NW,306,3.0,6.0,98,0.00,,,0.02,Wunderground v.1.15,2013-10-30 21:27:00,
2013-10-30 16:32:00,49.5,49.0,29.76,NW,321,3.0,5.0,98,0.00,,,0.02,Wunderground v.1.15,2013-10-30 21:32:00,
2013-10-30 16:37:00,49.5,49.0,29.77,North,5,1.0,5.0,98,0.00,,,0.02,Wunderground v.1.15,2013-10-30 21:37:00,
2013-10-30 16:42:00,49.5,49.0,29.77,North,5,1.0,3.0,98,0.00,,,0.02,Wunderground v.1.15,2013-10-30 21:42:00,
2013-10-30 16:47:00,49.5,49.0,29.77,North,5,1.0,3.0,98,0.00,,,0.02,Wunderground v.1.15,2013-10-30 21:47:00,
2013-10-30 16:52:00,49.6,49.1,29.77,North,5,1.0,1.0,98,0.00,,,0.03,Wunderground v.1.15,2013-10-30 21:52:00,
2013-10-30 16:57:00,49.6,49.1,29.77,North,5,1.0,2.0,98,0.09,,,0.04,Wunderground v.1.15,2013-10-30 21:57:00,
2013-10-30 17:02:00,49.5,49.0,29.76,North,5,0.0,1.0,98,0.08,,,0.04,Wunderground v.1.15,2013-10-30 22:02:00,
2013-10-30 17:07:00,49.6,49.1,29.76,North,5,0.0,1.0,98,0.06,,,0.05,Wunderground v.1.15,2013-10-30 22:07:00,
2013-10-30 17:12:00,49.6,49.1,29.76,North,5,0.0,0.0,98,0.06,,,0.05,Wunderground v.1.15,2013-10-30 22:12:00,
2013-10-30 17:17:00,49.6,49.1,29.76,North,5,0.0,0.0,98,0.08,,,0.06,Wunderground v.1.15,2013-10-30 22:17:00,
2013-10-30 17:22:00,49.6,49.1,29.76,North,5,0.0,1.0,98,0.06,,,0.06,Wunderground v.1.15,2013-10-30 22:22:00,
2013-10-30 17:27:00,49.6,49.1,29.76,North,5,1.0,2.0,98,0.04,,,0.06,Wunderground v.1.15,2013-10-30 22:27:00,
2013-10-30 17:32:00,49.6,49.1,29.76,SW,233,3.0,4.0,98,0.00,,,0.06,Wunderground v.1.15,2013-10-30 22:32:00,
2013-10-30 17:37:00,49.6,49.1,29.76,SW,233,2.0,4.0,98,0.00,,,0.07,Wunderground v.1.15,2013-10-30 22:37:00,
2013-10-30 17:42:00,49.6,49.1,29.76,SW,223,2.0,3.0,98,0.00,,,0.07,Wunderground v.1.15,2013-10-30 22:42:00,
2013-10-30 17:47:00,49.6,49.1,29.76,SW,222,3.0,4.0,98,0.00,,,0.07,Wunderground v.1.15,2013-10-30 22:47:00,
2013-10-30 17:52:00,49.5,49.0,29.75,SW,221,3.0,4.0,98,0.00,,,0.07,Wunderground v.1.15,2013-10-30 22:52:00,
2013-10-30 17:57:00,49.4,48.9,29.75,SW,232,5.0,5.0,98,0.00,,,0.07,Wunderground v.1.15,2013-10-30 22:57:00,
2013-10-30 18:02:00,49.3,48.8,29.75,WSW,242,3.0,5.0,98,0.00,,,0.07,Wunderground v.1.15,2013-10-30 23:02:00,
2013-10-30 18:07:00,49.1,48.6,29.75,SW,235,2.0,5.0,98,0.00,,,0.07,Wunderground v.1.15,2013-10-30 23:07:00,
2013-10-30 18:12:00,49.1,48.6,29.75,SW,235,2.0,4.0,98,0.00,,,0.07,Wunderground v.1.15,2013-10-30 23:12:00,
2013-10-30 18:17:00,49.0,48.5,29.74,SW,235,3.0,4.0,98,0.00,,,0.08,Wunderground v.1.15,2013-10-30 23:17:00,
2013-10-30 18:22:00,49.0,48.5,29.74,SW,235,3.0,3.0,98,0.00,,,0.08,Wunderground v.1.15,2013-10-30 23:22:00,
2013-10-30 18:27:00,48.9,48.4,29.74,SW,235,3.0,3.0,98,0.00,,,0.08,Wunderground v.1.15,2013-10-30 23:27:00,
2013-10-30 18:32:00,49.0,48.5,29.74,SW,235,3.0,4.0,98,0.00,,,0.08,Wunderground v.1.15,2013-10-30 23:32:00,
2013-10-30 18:37:00,48.9,48.4,29.74,SW,235,3.0,3.0,98,0.00,,,0.08,Wunderground v.1.15,2013-10-30 23:37:00,
2013-10-30 18:42:00,48.8,48.3,29.74,SW,235,2.0,3.0,98,0.00,,,0.08,Wunderground v.1.15,2013-10-30 23:42:00,
2013-10-30 18:47:00,48.8,48.3,29.74,SW,235,2.0,2.0,98,0.00,,,0.08,Wunderground v.1.15,2013-10-30 23:47:00,
2013-10-30 18:52:00,48.8,48.3,29.74,SW,235,3.0,3.0,98,0.00,,,0.08,Wunderground v.1.15,2013-10-30 23:52:00,
2013-10-30 18:57:00,48.8,48.3,29.74,SW,222,2.0,3.0,98,0.00,,,0.08,Wunderground v.1.15,2013-10-30 23:57:00,
2013-10-30 19:02:00,48.7,48.2,29.74,WSW,244,4.0,5.0,98,0.00,,,0.08,Wunderground v.1.15,2013-10-31 00:02:00,
2013-10-30 19:07:00,48.7,48.2,29.74,WSW,244,4.0,4.0,98,0.00,,,0.08,Wunderground v.1.15,2013-10-31 00:07:00,
2013-10-30 19:12:00,48.7,48.2,29.74,WSW,243,4.0,6.0,98,0.00,,,0.08,Wunderground v.1.15,2013-10-31 00:12:00,
2013-10-30 19:17:00,48.6,48.1,29.74,WSW,240,6.0,6.0,98,0.00,,,0.08,Wunderground v.1.15,2013-10-31 00:17:00,
2013-10-30 19:22:00,48.6,48.1,29.74,WSW,253,7.0,9.0,98,0.00,,,0.08,Wunderground v.1.15,2013-10-31 00:22:00,
2013-10-30 19:27:00,48.5,48.0,29.75,WSW,255,5.0,9.0,98,0.00,,,0.08,Wunderground v.1.15,2013-10-31 00:27:00,
2013-10-30 19:32:00,48.3,47.8,29.75,West,263,10.0,11.0,98,0.00,,,0.08,Wunderground v.1.15,2013-10-31 00:32:00,
2013-10-30 19:37:00,48.0,47.2,29.74,West,261,8.0,11.0,97,0.00,,,0.08,Wunderground v.1.15,2013-10-31 00:37:00,
2013-10-30 19:42:00,47.5,46.7,29.74,West,267,7.0,12.0,97,0.00,,,0.08,Wunderground v.1.15,2013-10-31 00:42:00,
2013-10-30 19:47:00,47.2,46.4,29.74,WNW,284,9.0,13.0,97,0.00,,,0.08,Wunderground v.1.15,2013-10-31 00:47:00,
2013-10-30 19:52:00,46.8,46.0,29.75,West,277,10.0,13.0,97,0.00,,,0.08,Wunderground v.1.15,2013-10-31 00:52:00,
2013-10-30 19:57:00,46.5,45.7,29.75,West,279,11.0,11.0,97,0.00,,,0.08,Wunderground v.1.15,2013-10-31 00:57:00,
2013-10-30 20:02:00,46.3,45.5,29.75,West,277,8.0,13.0,97,0.00,,,0.08,Wunderground v.1.15,2013-10-31 01:02:00,
2013-10-30 20:07:00,46.1,45.3,29.75,West,273,10.0,10.0,97,0.00,,,0.08,Wunderground v.1.15,2013-10-31 01:07:00,
2013-10-30 20:12:00,46.0,45.2,29.75,WNW,288,10.0,13.0,97,0.00,,,0.08,Wunderground v.1.15,2013-10-31 01:12:00,
2013-10-30 20:17:00,45.6,44.8,29.75,WNW,283,10.0,12.0,97,0.00,,,0.08,Wunderground v.1.15,2013-10-31 01:17:00,
2013-10-30 20:22:00,45.4,44.6,29.75,West,268,12.0,14.0,97,0.00,,,0.08,Wunderground v.1.15,2013-10-31 01:22:00,
2013-10-30 20:27:00,45.2,44.4,29.75,WNW,289,8.0,11.0,97,0.00,,,0.08,Wunderground v.1.15,2013-10-31 01:27:00,
2013-10-30 20:32:00,45.0,44.2,29.75,West,261,10.0,13.0,97,0.00,,,0.08,Wunderground v.1.15,2013-10-31 01:32:00,
2013-10-30 20:37:00,44.8,44.0,29.75,West,278,7.0,10.0,97,0.00,,,0.08,Wunderground v.1.15,2013-10-31 01:37:00,
2013-10-30 20:42:00,44.7,43.9,29.74,WNW,283,8.0,12.0,97,0.00,,,0.08,Wunderground v.1.15,2013-10-31 01:42:00,
2013-10-30 20:47:00,44.5,43.7,29.74,West,279,9.0,10.0,97,0.00,,,0.08,Wunderground v.1.15,2013-10-31 01:47:00,
2013-10-30 20:52:00,44.4,43.6,29.74,WNW,287,8.0,12.0,97,0.00,,,0.08,Wunderground v.1.15,2013-10-31 01:52:00,
2013-10-30 20:57:00,44.3,43.5,29.74,West,277,8.0,10.0,97,0.00,,,0.08,Wunderground v.1.15,2013-10-31 01:57:00,
2013-10-30 21:02:00,44.3,43.5,29.74,West,275,9.0,14.0,97,0.00,,,0.08,Wunderground v.1.15,2013-10-31 02:02:00,
2013-10-30 21:08:00,44.2,43.4,29.74,WNW,298,8.0,10.0,97,0.00,,,0.08,Wunderground v.1.15,2013-10-31 02:08:00,
2013-10-30 21:13:00,44.2,43.4,29.74,West,277,10.0,10.0,97,0.00,,,0.08,Wunderground v.1.15,2013-10-31 02:13:00,
2013-10-30 21:18:00,44.0,43.2,29.73,West,281,9.0,12.0,97,0.00,,,0.08,Wunderground v.1.15,2013-10-31 02:18:00,
2013-10-30 21:23:00,43.9,43.1,29.73,West,281,9.0,12.0,97,0.00,,,0.08,Wunderground v.1.15,2013-10-31 02:23:00,
2013-10-30 21:28:00,43.8,43.0,29.73,West,281,11.0,13.0,97,0.00,,,0.08,Wunderground v.1.15,2013-10-31 02:28:00,
2013-10-30 21:33:00,43.6,42.8,29.73,WNW,299,9.0,14.0,97,0.00,,,0.08,Wunderground v.1.15,2013-10-31 02:33:00,
2013-10-30 21:38:00,43.6,42.8,29.72,West,281,12.0,13.0,97,0.00,,,0.08,Wunderground v.1.15,2013-10-31 02:38:00,
2013-10-30 21:43:00,43.4,42.6,29.72,WNW,282,10.0,14.0,97,0.00,,,0.08,Wunderground v.1.15,2013-10-31 02:43:00,
2013-10-30 21:48:00,43.3,42.5,29.72,WNW,287,11.0,13.0,97,0.00,,,0.08,Wunderground v.1.15,2013-10-31 02:48:00,
2013-10-30 21:53:00,43.2,42.4,29.72,WNW,296,9.0,13.0,97,0.00,,,0.08,Wunderground v.1.15,2013-10-31 02:53:00,
2013-10-30 21:58:00,43.1,42.3,29.72,WNW,285,9.0,11.0,97,0.00,,,0.08,Wunderground v.1.15,2013-10-31 02:58:00,
2013-10-30 22:00:00,43.1,42.3,29.72,WNW,285,9.0,12.0,97,0.00,,,0.08,Wunderground v.1.15,2013-10-31 03:00:00,
2013-10-30 22:05:00,42.9,42.1,29.72,WNW,302,11.0,16.0,97,0.00,,,0.08,Wunderground v.1.15,2013-10-31 03:05:00,
2013-10-30 22:10:00,42.6,41.8,29.72,WNW,294,8.0,13.0,97,0.00,,,0.08,Wunderground v.1.15,2013-10-31 03:10:00,
2013-10-30 22:15:00,42.5,41.7,29.72,WNW,294,10.0,14.0,97,0.00,,,0.08,Wunderground v.1.15,2013-10-31 03:15:00,
2013-10-30 22:20:00,42.4,41.6,29.72,West,275,13.0,14.0,97,0.00,,,0.08,Wunderground v.1.15,2013-10-31 03:20:00,
2013-10-30 22:25:00,42.4,41.6,29.72,West,269,12.0,14.0,97,0.00,,,0.08,Wunderground v.1.15,2013-10-31 03:25:00,
2013-10-30 22:30:00,42.3,41.5,29.72,WNW,294,11.0,14.0,97,0.00,,,0.08,Wunderground v.1.15,2013-10-31 03:30:00,
2013-10-30 22:35:00,42.1,41.3,29.72,WNW,284,12.0,16.0,97,0.00,,,0.08,Wunderground v.1.15,2013-10-31 03:35:00,
2013-10-30 22:40:00,42.1,41.3,29.72,WNW,292,11.0,15.0,97,0.00,,,0.08,Wunderground v.1.15,2013-10-31 03:40:00,
2013-10-30 22:45:00,42.0,41.2,29.72,West,277,11.0,15.0,97,0.00,,,0.08,Wunderground v.1.15,2013-10-31 03:45:00,
2013-10-30 22:50:00,42.0,41.2,29.72,West,281,14.0,15.0,97,0.00,,,0.08,Wunderground v.1.15,2013-10-31 03:50:00,
2013-10-30 22:55:00,41.9,40.8,29.72,West,281,10.0,17.0,96,0.00,,,0.08,Wunderground v.1.15,2013-10-31 03:55:00,
2013-10-30 23:00:00,41.9,40.8,29.73,West,275,12.0,14.0,96,0.00,,,0.08,Wunderground v.1.15,2013-10-31 04:00:00,
2013-10-30 23:01:00,41.9,40.8,29.73,West,271,9.0,14.0,96,0.00,,,0.08,Wunderground v.1.15,2013-10-31 04:01:00,
2013-10-30 23:06:00,41.8,41.0,29.73,WNW,290,12.0,14.0,97,0.00,,,0.08,Wunderground v.1.15,2013-10-31 04:06:00,
2013-10-30 23:11:00,41.6,40.5,29.73,WNW,294,11.0,13.0,96,0.00,,,0.08,Wunderground v.1.15,2013-10-31 04:11:00,
2013-10-30 23:16:00,41.4,40.3,29.72,WNW,287,10.0,13.0,96,0.00,,,0.08,Wunderground v.1.15,2013-10-31 04:16:00,
2013-10-30 23:21:00,41.2,40.1,29.72,WNW,284,7.0,14.0,96,0.00,,,0.08,Wunderground v.1.15,2013-10-31 04:21:00,
2013-10-30 23:26:00,41.2,40.1,29.72,WNW,288,11.0,14.0,96,0.00,,,0.08,Wunderground v.1.15,2013-10-31 04:26:00,
2013-10-30 23:31:00,41.1,40.0,29.72,WNW,290,10.0,14.0,96,0.00,,,0.08,Wunderground v.1.15,2013-10-31 04:31:00,
2013-10-30 23:36:00,41.1,40.0,29.72,WNW,294,8.0,14.0,96,0.00,,,0.08,Wunderground v.1.15,2013-10-31 04:36:00,
2013-10-30 23:41:00,41.1,40.0,29.72,WNW,286,9.0,13.0,96,0.00,,,0.08,Wunderground v.1.15,2013-10-31 04:41:00,
2013-10-30 23:46:00,40.9,39.6,29.72,West,275,10.0,14.0,95,0.00,,,0.08,Wunderground v.1.15,2013-10-31 04:46:00,
2013-10-30 23:51:00,40.9,39.6,29.72,West,267,11.0,15.0,95,0.00,,,0.08,Wunderground v.1.15,2013-10-31 04:51:00,
2013-10-30 23:56:00,40.7,39.6,29.72,West,267,10.0,15.0,96,0.00,,,0.08,Wunderground v.1.15,2013-10-31 04:56:00,